Starlink 32934

operational
NORAD ID: 63200 Int'l Des: 2025-048 Owner: SPXS Country: US Constellation: starlink
LEOCIRCULAR

About Starlink 32934

Description loading...

Live Position

Loading 3D Globe...

Upcoming Passes

Altitude History

Altitude vs Time

uPlot chart will show altitude changes over time

Two-Line Element Set

1 63200U 25048T 25302.51450204 .00027062 00000-0 98974-3 0 9990
2 63200 43.0032 105.8641 0001664 252.1821 107.8849 15.27566245 37031
Epoch: Oct 29, 2025 • Age: 40 hours

Current Status

Altitude 487.1 km
Velocity 7.63 km/s
Sub-Earth Point 43.12°N, 84.43°E
Launch Date Mar 13, 2025
Age 0.6 years
Type internet

Technical Details

Classification Payload
Mass 730.00 kg
Dry Mass 700.00 kg
Total Mass 730.00 kg
Length 0.30 m
Diameter 4.10 m
Span 29.00 m
Shape Box + pan
Manufacturer SPXS
Bus Type Starlink V2M
Phase Status In Orbit
Owner/State SPXS/US

Large Constellations

Loading constellations...